DMSP 5D-3 F15 (USA 147) 1 25991U 99067A 21056.81581493 -.00000074 00000-0 -14427-4 0 9995 2 25991 99.0046 36.5427 0010859 99.9019 311.2202 14.16460741 96317 DMSP 5D-3 F15 DEB 1 25992U 99067B 21056.60401219 .00000528 00000-0 20233-3 0 9993 2 25992 98.3416 113.6183 0006521 49.0824 107.4311 14.34489915105140 DMSP 5D-3 F15 DEB 1 25993U 99067C 21056.54394811 .00000661 00000-0 24753-3 0 9995 2 25993 98.2487 74.9160 0004630 56.6752 106.2364 14.34831602104660 DMSP 5D-3 F15 DEB 1 26146U 99067D 21056.53840900 .00003473 00000-0 46800-3 0 9991 2 26146 98.8583 252.8848 0006295 317.4350 42.6370 14.79926411114938 DMSP 5D-3 F15 DEB 1 26147U 99067E 21056.34894102 .00001262 00000-0 36998-3 0 9995 2 26147 98.8382 12.5223 0007399 305.1463 213.2531 14.45697095109383